Location: Chmeli�t?
(49.8978°N, 15.0526°E)
Time: 00:18:05
(UTC+00:00)

Cosmos 2074 Rocket - Pass Details

Date: 07 October 2020
Orbit: 967 x 986 km, 82.9° (Epoch: 24 October)

Event Time Altitude Azimuth Distance (km) Brightness Sun altitude
Rises 19:56:32 0° 356° (N) 3,692 7.5 -33.3°
Reaches altitude 10° 19:59:32 10° 9° (N) 2,737 6.6 -33.7°
Enters shadow 20:01:50 19° 27° (NNE) 2,148 5.8 -34.0°
